Simultaneous Nadir Overpasses (SNOs) Predictions

Prediction of SNOs between GOES-15 and METOP-B Satellite Orbit:

Table of predicted SNOs for the next 14.0 days since TLE Epoch: 5/4/2024
Index Date Time (GOES-15) GOES-15 Lat,Lon METOP-B Lat,Lon Distance(km) Time Diff (sec)
1 05/04/2024 05:13:50 -0.16, 61.48 -0.40, 62.64 132.09 80
2 05/05/2024 17:32:49 0.16, 61.47 -0.61, 58.04 391.00 80
3 05/06/2024 17:12:08 0.17, 61.48 0.53, 63.03 176.60 80
4 05/08/2024 05:30:56 -0.17, 61.54 0.53, 58.48 349.21 80
5 05/09/2024 05:07:36 -0.17, 61.55 -0.61, 63.46 217.95 80
6 05/10/2024 17:29:13 0.17, 61.55 -0.45, 58.87 306.22 80
7 05/11/2024 17:05:53 0.18, 61.57 0.70, 63.86 260.67 80
8 05/13/2024 05:27:21 -0.18, 61.64 0.35, 59.31 265.79 80
9 05/14/2024 05:04:00 -0.19, 61.66 -0.75, 64.30 301.05 80
10 05/15/2024 17:25:38 0.19, 61.66 -0.25, 59.70 223.18 80
11 05/16/2024 17:02:17 0.19, 61.68 0.85, 64.70 343.73 80
